Вернуться в каталог

STARLINK-31645

АктивенСвязьVLEO
NORAD 59264·PAYLOAD·🇺🇸 United States

Запущен Mar 19, 2024 с Vandenberg Space Force Base

Loading…

Ближайшие Пролёты (ближайшие 24 часа)

TLE

СвежийSource: CelesTrak SupGP

Эпоха: Sep 14, 2026, 22:47 UTC

1 59264C 24050L   26257.94979167 -.00001150  00000+0 -33993-4 0  2577
2 59264  53.1605  19.7088 0001133  87.4129 358.1132 15.34384007    19

Отслеживайте STARLINK-31645 в реальном времени с AllMySat

Download on the App Store